CAPE
44 44 0 20 33 53 14 22 87 36 112 161 0 1 1 2 9 0 0 0 11 285 1002 1326 1242 1359 1355 1751 1263 1371 1565 1814 1829 1823 1622 1615 1685 1708 1638 1701 1831 1820 1551 1293 1585 1416 920 771 853
28 11 47 110 89 4 0 49 64 77 77 53 27 29 12 0 2 4 0 2 91 519 1055 1126 1302 1347 1347 1808 1296 1633 1851 1244 1617 1863 1615 1688 1716 1723 1796 1717 1723 1550 1632 1609 1234 1246 1066 929 770
8 60 53 49 9 4 38 85 83 102 130 149 86 20 0 0 1 4 0 60 353 625 1027 1050 1300 1393 1367 1580 1531 1558 1791 1364 1535 1734 1702 1687 1679 1778 1682 1671 1709 1618 1537 1490 1203 793 1226 949 823
36 58 142 21 5 39 77 60 119 120 244 148 21 1 0 2 0 0 16 304 434 901 866 1011 1270 1224 1741 1341 1725 1608 1617 1458 1783 1880 1732 1533 1561 1529 1552 1577 1612 1627 1604 1285 1420 1284 1290 961 608
122 82 0 0 0 13 43 84 147 121 272 146 0 0 2 9 0 0 78 516 429 755 1086 1262 1336 1306 1596 1360 1432 1687 1514 1555 1762 1901 1874 1821 1821 1806 1771 1769 1763 1689 1667 1646 1442 1333 1182 824 680
204 4 0 0 0 11 54 83 286 316 69 0 0 0 7 9 0 9 276 457 696 832 1117 1442 1307 1503 1423 1477 1291 1512 1405 1554 1687 1782 1824 1896 1903 1822 1788 1728 1660 1521 1411 1473 1441 1218 895 704 669
21 0 0 0 1 39 63 0 190 201 39 0 0 0 5 3 1 38 448 593 800 964 1016 1351 1223 1325 1301 1355 1410 1435 1347 1531 1582 1636 1739 1848 1876 1820 1723 1699 1688 1642 1598 1517 957 592 380 460 621
87 0 0 1 0 19 19 5 60 276 117 15 4 0 2 0 8 138 561 660 902 957 1040 1145 1270 1175 1180 1469 1349 1503 1484 1532 1588 1550 1543 1458 1518 1616 1519 1368 1612 1543 1494 1473 805 528 225 576 811
1 0 0 0 0 27 127 172 388 168 108 129 51 14 0 0 1 298 476 496 787 1003 1099 989 1103 923 1028 1337 1291 1590 1587 1582 1549 1406 1406 1099 803 913 1177 1130 1501 1440 1346 1196 1011 1010 700 738 723
177 3 0 1 5 6 122 237 364 126 172 40 33 2 0 0 10 258 428 287 449 713 943 943 961 538 1010 1287 1239 1293 1475 1434 1231 922 696 609 696 789 875 694 1354 1171 1264 1253 1016 553 959 435 339
297 34 42 17 42 15 39 152 396 258 147 65 22 0 7 5 14 224 467 325 223 538 841 792 657 545 700 789 973 829 1067 1063 807 334 50 311 691 982 911 781 465 33 111 256 391 254 266 473 352
150 163 163 30 55 28 42 301 514 324 362 103 5 0 3 16 19 242 459 374 253 367 547 593 388 224 275 378 533 289 510 558 538 227 0 400 551 671 697 267 40 24 5 92 369 675 734 567 488
75 103 120 189 102 13 0 0 186 295 335 11 0 0 6 11 9 205 374 454 332 213 288 312 125 33 0 0 187 37 126 338 531 283 1 72 136 303 93 70 240 213 305 390 393 660 399 36 30
27 19 45 58 47 68 4 86 258 452 198 0 0 0 0 0 79 142 221 395 371 252 179 130 17 0 0 0 0 0 48 289 345 186 60 11 0 39 181 355 390 487 427 420 347 511 105 33 28
0 0 0 0 0 58 39 13 139 384 176 5 0 0 0 5 124 144 185 325 394 298 163 38 0 6 0 0 0 0 129 239 289 270 319 195 320 508 625 482 472 538 553 369 380 606 182 84 24
0 0 0 0 5 48 9 22 297 353 191 81 1 0 0 0 77 131 166 194 254 211 114 16 46 50 0 52 0 0 139 239 299 320 412 423 133 368 592 532 540 552 504 576 599 538 43 63 13
0 0 0 0 0 72 44 4 381 360 185 119 91 56 12 0 94 147 139 147 117 75 39 0 38 61 44 61 118 0 33 145 267 412 466 577 261 551 640 568 503 510 392 704 550 440 374 79 42
0 0 0 0 0 36 48 16 288 391 274 153 149 180 204 56 48 117 117 90 130 0 0 0 0 30 54 42 97 319 252 325 240 540 646 689 641 804 446 345 428 86 376 611 444 475 167 123 185
0 0 0 0 0 24 57 35 274 347 360 248 178 151 182 154 103 63 96 72 49 0 0 0 0 8 72 57 216 213 142 207 358 498 739 741 974 692 268 488 125 0 695 573 459 0 3 7 38
0 0 0 0 0 0 30 32 164 347 279 341 246 159 182 146 130 59 96 82 50 0 0 0 0 0 35 47 260 96 9 38 103 243 599 622 910 1020 644 357 363 393 671 603 566 0 0 2 21
0 0 0 0 0 0 22 53 10 386 437 430 294 163 205 180 117 86 88 128 53 28 0 0 0 0 13 36 85 70 34 21 42 92 258 497 692 804 927 383 364 627 657 551 343 154 0 2 23
0 0 0 0 0 0 0 0 13 79 360 414 386 269 197 219 162 133 105 123 112 2 3 0 0 0 0 51 92 55 1 0 0 0 76 343 717 807 978 870 732 700 678 778 501 316 83 0 4
0 0 0 0 0 0 0 0 0 39 178 262 326 373 291 262 223 178 139 133 127 22 18 0 0 0 0 58 36 0 0 0 0 0 0 192 570 824 938 1058 933 613 700 826 785 477 158 0 0
0 0 0 0 0 0 0 0 0 0 24 76 201 372 365 361 327 310 215 201 154 59 29 0 0 0 0 17 11 0 14 0 0 0 0 5 311 658 827 1065 1006 889 675 768 715 720 214 0 0
0 0 0 0 0 0 0 0 0 0 0 0 51 309 346 342 341 295 291 257 282 163 54 22 20 33 0 18 31 0 19 0 0 0 0 0 84 402 733 982 985 968 847 668 728 746 602 435 44
0 0 0 0 0 0 0 0 0 0 0 7 54 192 240 151 112 340 220 316 333 255 90 61 61 68 48 33 47 63 35 8 15 0 0 93 150 258 407 832 893 910 1071 1014 776 689 791 770 744
0 0 0 0 0 0 0 0 0 0 0 0 2 114 79 112 108 137 293 228 220 225 147 130 119 174 116 54 101 141 123 95 59 32 9 0 74 241 288 375 684 861 954 1310 1163 950 866 961 701
0 0 0 0 0 0 0 0 0 0 0 0 0 72 130 103 102 177 302 213 136 162 175 100 134 210 209 130 171 207 201 189 193 117 50 7 72 134 255 321 480 647 801 1223 1366 1206 999 1161 1054
0 0 0 0 0 0 0 0 0 0 0 0 0 6 67 132 151 144 195 269 184 128 254 192 131 163 244 317 260 259 311 311 332 300 235 196 100 95 218 294 425 746 817 1074 1304 1386 1261 1060 1280
0 0 0 0 0 0 0 0 0 0 0 0 0 0 9 91 232 279 110 249 238 137 206 310 235 179 188 327 352 365 433 500 539 435 334 261 269 303 167 295 530 655 1008 1102 1221 1275 1372 1235 1091
CIN
-49 -12 0 -19 0 -1 -30 -35 -122 -33 -26 -20 0 -17 -40 -83 -84 0 0 0 -69 -24 -1 0 0 0 0 0 -19 -17 0 0 0 0 0 0 0 0 0 0 0 0 0 0 0 0 -2 -3 -2
-73 -49 -13 -2 -5 -35 -27 -44 -45 -65 -42 -54 -51 -61 -118 0 0 0 0 -59 -36 -13 -1 -1 -1 0 0 0 -10 0 0 -11 0 0 -1 0 0 0 0 0 0 0 0 0 -2 -1 0 -1 -7
-138 -32 -9 -2 -33 -35 -29 -33 -44 -67 -47 -29 -45 -90 0 0 0 0 0 -64 -10 -4 -1 -2 0 0 0 0 0 0 0 -1 -3 -3 0 0 0 0 0 0 0 0 0 0 -6 -3 0 0 -8
-68 -21 -1 -15 -27 -18 -38 -43 -55 -49 -42 -65 -113 -61 0 -5 0 0 -92 -2 -10 -2 -4 -2 0 0 0 -1 0 0 0 0 0 -1 -2 0 0 0 0 0 0 0 0 -8 -4 -3 0 -3 -19
-21 -20 0 0 0 -46 -113 -100 -53 -48 -59 -79 0 0 0 -1 0 0 -90 0 -21 -2 -1 0 0 0 0 -1 0 0 0 0 0 0 0 0 0 0 0 0 0 0 0 0 -6 -6 -4 -6 -18
-9 -107 0 0 0 -56 -85 -101 -24 -7 -96 0 0 0 0 -14 0 -128 -6 -1 -5 -3 -1 0 0 0 -1 0 -2 0 0 0 0 0 -1 0 0 0 -1 0 -1 -2 -4 -2 -3 -7 -10 -14 -15
-1 0 0 0 -45 -103 -79 0 -68 -79 -107 0 0 0 0 -4 -187 -140 -1 -1 -2 -3 -7 0 0 0 -5 -6 -4 -1 -3 0 0 0 0 0 0 0 -1 -3 -2 -6 -7 -7 -14 -17 -26 -22 -20
-49 0 0 -38 0 -130 -159 -194 -107 -65 -92 -221 -340 -9 0 0 -233 -92 0 0 -2 -6 -8 -3 -2 -8 -26 -3 -8 -1 -1 0 0 0 0 -2 -7 -8 -13 -16 -9 -12 -11 -13 -11 -20 -30 -18 -19
-11 -5 0 0 0 -170 -169 -91 -82 -81 -129 -155 -267 -381 0 0 -33 -39 -5 0 0 0 -2 -14 -15 -46 -40 -11 -11 0 -1 -2 -4 -12 -15 -43 -68 -54 -29 -25 -12 -16 -19 -18 -25 -17 -23 -21 -19
-38 -114 0 -75 -147 -78 -98 -107 -63 -96 -132 -280 -272 -99 0 0 -252 -83 -35 -37 -5 -3 -1 -21 -33 -95 -41 -22 -19 -18 -10 -19 -34 -56 -72 -80 -70 -49 -41 -48 -17 -20 -33 -32 -34 -43 -28 -41 -48
-47 -69 -88 -151 -122 -112 -97 -80 -82 -96 -122 -237 -278 0 -218 -256 -271 -132 -30 -57 -112 -48 -12 -39 -73 -97 -78 -70 -52 -63 -52 -49 -65 -117 -168 -100 -78 -52 -48 -59 -75 -204 -97 -78 -57 -63 -61 -47 -55
-99 -89 -107 -117 -123 -82 -116 -82 -68 -70 -94 -242 -314 0 -215 -315 -334 -158 -71 -74 -95 -73 -62 -75 -108 -137 -124 -116 -97 -118 -96 -89 -85 -135 0 -97 -85 -64 -70 -98 -159 -179 -27 -86 -67 -52 -48 -59 -60
-154 -130 -127 -69 -91 -135 0 -9 -71 -87 -130 -216 0 0 -294 -374 -379 -137 -81 -58 -93 -106 -99 -111 -155 -181 0 0 -135 -102 -129 -104 -87 -117 -5 -90 -119 -86 -114 -140 -91 -77 -77 -59 -58 -50 -53 -50 -57
-193 -143 -129 -93 -78 -102 -56 -77 -68 -123 -209 0 0 0 0 0 -268 -173 -104 -73 -88 -109 -127 -144 -140 0 0 0 0 0 -143 -114 -97 -123 -163 -149 0 -121 -103 -78 -76 -60 -68 -76 -55 -59 -63 -32 -40
0 0 0 0 0 -110 -71 -78 -86 -173 -239 -67 0 0 0 -309 -222 -220 -155 -109 -98 -110 -138 -191 0 -93 0 0 0 0 -96 -115 -104 -101 -112 -113 -95 -83 -64 -59 -49 -56 -67 -57 -48 -46 -86 -68 -55
0 0 0 0 -136 -137 -112 -84 -132 -233 -264 -322 -67 0 0 0 -219 -184 -153 -129 -109 -108 -147 -150 -150 -151 0 -152 0 0 -108 -115 -113 -97 -83 -76 -122 -88 -59 -50 -47 -59 -58 -43 -51 -49 -61 -66 -58
0 0 0 0 0 -127 -156 -76 -165 -237 -247 -258 -272 -315 -154 0 -196 -157 -144 -144 -132 -152 -166 0 -152 -130 -159 -141 -131 0 -49 -122 -111 -107 -78 -73 -96 -77 -64 -63 -69 -76 -66 -51 -35 -54 -36 -43 -42
0 0 0 0 0 -96 -102 -91 -148 -197 -204 -238 -248 -236 -251 -306 -282 -204 -175 -169 -115 0 0 0 0 -142 -135 -137 -110 -77 -80 -92 -107 -86 -70 -66 -82 -72 -76 -92 -86 -94 -55 -40 -39 -33 -74 -86 -67
0 0 0 0 0 -76 -72 -62 -125 -183 -179 -192 -243 -270 -271 -277 -244 -207 -156 -176 -164 0 0 0 0 -102 -131 -153 -84 -86 -100 -96 -86 -85 -64 -65 -67 -68 -84 -65 -106 0 -41 -45 -40 0 -44 -69 -82
0 0 0 0 0 0 -54 -72 -109 -180 -221 -212 -263 -336 -336 -288 -248 -233 -179 -173 -216 0 0 0 0 0 -176 -147 -116 -120 -14 -143 -121 -103 -68 -63 -54 -54 -64 -60 -62 -65 -47 -43 -37 0 0 -29 -93
0 0 0 0 0 0 -26 -15 -61 -159 -171 -185 -224 -270 -279 -316 -311 -283 -229 -204 -220 -221 0 0 0 0 -177 -182 -158 -171 -174 -203 -177 -154 -103 -81 -69 -51 -50 -55 -54 -51 -54 -36 -37 -54 0 -17 -69
0 0 0 0 0 0 0 0 -52 -89 -162 -174 -194 -214 -265 -288 -305 -298 -264 -238 -264 -26 -66 0 0 0 0 -219 -166 -192 -5 0 0 0 -158 -81 -62 -50 -45 -41 -49 -45 -45 -39 -36 -44 -58 0 -26
0 0 0 0 0 0 0 0 0 -22 -103 -201 -230 -186 -248 -293 -313 -312 -304 -274 -281 -159 -298 0 0 0 0 -243 -217 0 0 0 0 0 0 -118 -57 -44 -39 -39 -42 -47 -55 -43 -35 -42 -77 0 0
0 0 0 0 0 0 0 0 0 0 -216 -188 -205 -233 -239 -263 -317 -321 -304 -263 -254 -278 -334 -1 0 0 0 -314 -263 0 -254 0 0 0 0 -37 -100 -63 -52 -39 -39 -40 -47 -45 -46 -46 -73 0 0
0 0 0 0 0 0 0 0 0 0 0 0 -187 -238 -263 -276 -263 -308 -312 -272 -244 -288 -363 -361 -333 -300 0 -356 -292 0 -261 0 0 0 0 0 -166 -133 -69 -44 -38 -40 -45 -48 -44 -43 -48 -46 -88
0 0 0 0 0 0 0 0 0 0 0 -242 -218 -227 -278 -321 -331 -281 -346 -313 -283 -290 -404 -374 -340 -284 -330 -334 -297 -261 -259 -258 -265 0 0 -171 -165 -140 -107 -57 -47 -46 -40 -39 -53 -48 -42 -46 -39
0 0 0 0 0 0 0 0 0 0 0 0 -13 -213 -239 -282 -289 -313 -292 -362 -358 -355 -427 -407 -373 -304 -318 -323 -281 -257 -267 -256 -267 -278 -306 0 -225 -160 -145 -113 -58 -50 -45 -37 -37 -45 -45 -49 -63
0 0 0 0 0 0 0 0 0 0 0 0 0 -180 -249 -344 -294 -298 -279 -353 -434 -421 -446 -447 -422 -365 -332 -320 -292 -281 -281 -277 -255 -281 -280 -334 -256 -214 -160 -127 -87 -66 -56 -46 -45 -49 -57 -45 -57
0 0 0 0 0 0 0 0 0 0 0 0 0 -152 -242 -312 -333 -289 -321 -338 -378 -476 -475 -452 -465 -423 -363 -311 -300 -292 -303 -300 -270 -284 -264 -258 -280 -251 -186 -143 -99 -63 -61 -57 -56 -51 -54 -59 -50
0 0 0 0 0 0 0 0 0 0 0 0 0 0 -131 -230 -259 -307 -353 -323 -354 -399 -488 -438 -450 -466 -425 -363 -318 -329 -323 -304 -267 -281 -296 -272 -255 -224 -208 -164 -111 -94 -65 -66 -56 -50 -57 -56 -77
Wind_Speed
17 17 17 14 15 12 17 18 14 24 18 23 25 21 15 11 4 7 19 31 30 29 29 26 25 24 23 23 21 21 23 21 22 22 23 25 25 23 25 25 26 24 23 22 22 22 22 21 22
15 14 12 16 16 8 12 12 20 23 16 18 12 11 10 18 14 4 9 32 31 28 27 26 24 25 24 24 23 24 24 24 24 25 23 21 24 24 25 25 23 22 22 22 21 21 21 20 20
16 11 16 15 11 11 14 13 13 19 21 15 6 9 9 15 6 28 18 30 28 26 26 26 24 25 26 24 25 25 24 23 23 20 22 21 18 21 21 23 23 23 23 23 23 22 22 21 20
14 13 16 12 14 17 17 17 21 15 5 9 12 9 10 19 25 7 27 26 27 25 26 26 25 26 26 24 24 24 20 21 23 20 19 23 21 22 23 24 26 25 25 24 24 22 22 21 21
16 14 10 6 12 13 17 17 17 16 11 10 15 10 13 17 17 28 26 23 26 24 25 26 25 27 26 25 23 23 21 23 15 13 21 22 24 24 27 28 26 27 26 24 24 24 24 24 24
13 14 11 12 13 16 7 19 17 12 13 9 8 9 12 21 28 28 24 25 24 24 24 24 26 26 26 25 25 25 24 25 15 11 11 25 28 28 28 28 28 27 26 25 23 23 23 22 20
14 11 12 14 16 13 11 9 18 15 12 11 14 7 11 26 31 25 25 24 24 22 23 23 25 26 26 27 26 27 27 28 25 24 23 22 25 26 27 27 27 27 26 25 24 23 24 23 20
11 12 12 12 13 15 14 5 16 17 12 10 14 10 20 32 32 25 26 24 24 21 24 24 25 27 28 29 27 29 28 25 24 24 24 24 25 26 25 25 25 25 23 22 22 20 23 23 21
14 14 12 10 14 16 13 7 7 10 12 8 17 14 28 35 32 29 28 25 25 24 27 25 27 29 31 30 29 28 27 25 26 26 25 24 23 20 21 22 23 23 21 19 18 20 23 24 24
10 13 8 8 13 9 16 19 23 8 10 10 10 18 33 33 35 33 31 29 27 27 29 27 29 31 31 29 27 26 26 27 27 26 25 23 21 21 20 20 20 20 18 18 19 19 19 22 23
12 16 7 16 21 9 16 20 22 16 17 18 16 26 32 32 35 31 30 29 29 28 28 30 30 32 31 30 28 27 27 26 25 24 23 23 22 22 22 20 19 18 16 16 19 19 18 18 19
18 25 16 15 19 11 10 14 13 12 14 18 22 31 31 32 33 32 31 30 29 29 28 32 32 33 32 30 30 29 28 27 25 24 23 23 22 21 22 20 19 15 18 16 15 18 16 17 18
25 26 24 28 26 12 11 10 12 18 14 20 26 29 30 30 31 30 30 28 28 29 30 34 34 34 33 32 30 30 29 28 25 25 24 23 23 23 21 20 19 17 14 12 15 14 20 20 20
16 28 31 26 27 25 10 12 11 5 15 21 25 28 31 30 30 26 26 29 29 30 31 35 35 35 34 33 32 31 29 27 25 25 24 23 22 21 21 20 19 18 17 16 15 14 19 20 20
28 29 30 31 32 10 14 12 13 7 13 19 24 28 29 31 30 30 27 29 30 31 32 35 36 36 36 34 33 31 29 27 26 25 24 22 21 21 21 20 18 18 18 16 15 18 19 19 19
18 20 35 30 5 9 13 26 3 10 15 20 22 24 28 29 30 32 29 27 30 32 33 36 37 37 37 35 34 31 29 27 27 26 24 22 21 21 20 19 19 19 19 18 18 18 22 22 22
20 18 13 35 15 13 7 14 6 11 14 16 21 23 26 27 28 32 32 27 31 34 33 38 39 39 39 36 34 31 30 27 27 27 25 23 22 22 20 20 19 19 19 18 17 17 18 20 20
22 22 21 21 12 9 11 17 3 12 12 14 18 23 24 28 30 29 29 28 31 36 33 40 41 40 39 37 34 32 30 26 27 26 25 24 22 21 20 20 20 19 18 17 18 17 18 18 19
23 27 27 24 23 9 12 14 8 11 12 14 26 27 26 27 28 28 24 24 20 39 36 41 42 41 40 38 37 35 31 30 27 26 25 24 23 21 19 19 19 20 19 18 18 18 19 18 21
36 34 36 33 26 17 17 15 12 14 18 23 24 24 26 25 28 30 28 26 21 37 42 43 44 42 41 41 38 35 35 32 29 26 24 25 23 21 20 19 19 19 19 18 19 18 19 19 21
36 40 37 32 20 23 23 40 17 15 18 28 22 22 28 29 28 30 30 32 24 28 43 44 44 43 40 39 39 32 33 32 32 29 28 26 24 22 21 19 19 19 19 19 20 19 19 21 20
39 35 39 37 30 33 25 36 28 19 17 24 29 28 37 33 30 30 31 32 33 30 36 46 44 43 41 36 40 39 37 35 34 31 30 27 24 23 21 19 18 19 20 19 19 18 19 19 20
38 34 37 39 35 37 42 35 31 18 22 33 32 37 38 35 33 32 32 34 37 26 31 41 41 44 42 39 40 38 35 35 35 33 29 28 24 23 21 20 19 18 19 19 18 17 17 18 19
33 32 35 36 37 50 50 38 33 21 33 35 34 40 42 37 34 35 33 34 32 36 24 32 38 41 44 38 37 36 36 33 31 31 31 28 25 24 23 21 20 18 17 18 17 16 17 17 16
37 33 37 44 45 52 39 44 43 19 36 38 31 39 43 43 40 35 32 35 36 31 28 29 38 41 39 40 37 35 35 32 30 30 30 29 26 22 24 22 21 19 18 18 16 15 15 15 16
37 38 36 41 41 45 36 44 39 19 41 44 38 35 29 43 44 40 34 34 35 33 29 31 37 44 41 41 39 36 33 31 32 31 31 30 28 26 23 23 21 20 17 16 15 15 14 15 15
40 46 39 37 35 39 41 41 39 27 38 45 37 35 20 43 47 42 38 32 31 31 32 34 34 39 43 43 40 36 32 29 31 33 31 32 29 25 23 21 20 19 18 15 15 15 16 15 15
45 31 40 43 46 50 42 41 47 33 38 43 40 27 17 48 49 42 40 37 29 29 32 33 34 35 39 40 39 38 35 29 32 32 29 30 31 27 22 20 17 14 16 15 15 14 15 16 16
42 44 42 41 42 48 46 50 39 36 34 48 45 40 38 43 47 48 41 39 36 20 29 32 32 32 32 38 40 40 34 32 33 30 30 28 24 23 15 11 11 11 14 14 13 12 13 15 16
39 46 41 42 46 45 48 56 32 40 26 22 28 46 44 41 40 38 45 40 33 26 23 31 31 33 35 36 38 40 34 30 33 31 25 21 21 16 14 12 11 13 13 12 12 15 12 15 17
Wind_Direction
103 103 102 271 288 1 189 183 244 201 215 179 134 169 107 1 58 274 130 128 121 116 117 108 102 97 91 87 79 74 75 68 71 71 74 78 79 73 82 80 90 82 78 76 68 61 58 56 63
92 77 308 288 289 349 281 264 180 166 110 87 70 42 327 141 244 95 147 125 122 116 114 110 103 100 95 92 86 84 82 81 78 79 73 67 76 73 78 81 78 72 72 76 69 65 61 54 54
100 68 285 317 347 302 272 251 244 195 151 84 359 307 271 202 41 118 122 121 118 115 114 112 105 103 102 95 93 91 85 82 79 65 73 68 55 63 64 70 74 78 83 87 75 72 73 65 53
70 324 318 37 230 228 238 246 214 170 37 291 61 326 276 196 115 142 119 118 117 113 115 114 110 108 106 100 96 93 79 81 82 70 65 74 68 69 71 75 85 87 104 102 97 73 77 72 66
253 307 325 284 44 324 249 225 215 95 263 290 244 281 48 84 100 119 119 118 119 114 113 115 113 113 109 104 95 94 85 90 61 50 73 72 78 76 87 95 85 91 102 104 103 84 95 91 120
289 279 319 347 8 234 246 218 227 267 268 325 359 43 57 107 120 123 119 120 117 115 114 114 115 114 112 107 105 106 100 101 187 198 192 135 119 114 117 101 98 102 105 110 120 120 134 152 159
290 306 320 317 319 338 355 283 230 260 294 294 80 344 75 121 127 122 121 119 118 116 115 114 116 118 118 118 113 118 118 143 160 160 161 160 142 131 121 109 110 114 112 114 120 126 129 149 157
289 314 328 10 336 278 267 337 252 235 294 48 82 77 121 133 129 122 123 121 120 116 119 119 120 123 129 139 122 134 155 168 166 165 162 156 145 135 128 123 113 116 130 130 128 133 138 144 152
281 319 326 41 253 211 259 274 349 342 54 308 129 87 128 133 129 127 128 125 125 124 129 124 127 135 143 146 150 166 168 170 165 159 155 153 158 164 156 140 131 127 142 146 142 139 133 137 133
292 302 7 348 61 10 182 187 173 332 50 337 37 93 130 134 138 137 136 136 134 134 137 132 137 147 150 160 177 180 174 167 160 156 158 160 160 158 156 150 145 148 150 148 142 145 147 137 134
283 282 314 232 206 43 112 143 158 80 108 130 108 129 136 138 143 139 140 141 141 139 138 145 146 153 155 173 183 180 174 171 169 167 165 161 155 147 145 157 153 159 164 165 144 143 153 161 157
273 241 261 262 228 61 65 87 72 89 238 123 122 133 136 142 145 145 144 145 144 144 144 153 156 161 169 183 179 175 172 169 168 163 168 156 161 153 143 154 160 178 144 165 180 152 159 156 153
249 238 246 218 239 310 296 116 120 153 139 107 120 132 137 141 145 146 147 145 146 149 151 160 164 167 176 183 181 175 174 164 160 162 163 146 133 132 140 143 140 164 192 206 186 178 105 123 114
257 249 240 253 220 220 99 298 85 27 92 112 128 137 144 146 148 143 145 151 152 153 156 164 169 174 182 184 182 177 175 168 163 163 163 149 144 143 151 153 144 149 161 159 168 184 126 113 111
251 248 244 241 231 290 294 292 286 78 113 124 132 144 148 153 152 155 150 155 157 160 159 167 172 179 183 183 180 183 180 177 173 165 161 152 166 159 151 151 147 142 148 169 172 143 101 94 141
259 265 217 242 282 284 272 235 306 106 122 132 136 141 155 160 162 163 159 156 161 163 165 169 177 183 186 184 185 187 188 188 183 178 169 160 157 168 155 149 143 128 127 148 145 141 114 107 122
256 254 249 231 180 270 255 280 127 128 131 135 142 146 153 160 166 169 167 161 164 168 166 175 180 186 188 189 190 190 191 193 177 177 174 163 154 151 141 147 140 127 136 143 158 147 136 121 108
246 247 255 258 269 249 252 274 170 153 152 150 148 154 156 164 169 168 167 166 169 176 171 179 185 189 191 195 195 191 189 196 179 171 168 161 153 141 137 149 153 151 169 166 152 157 150 156 139
252 250 250 258 262 240 218 255 214 172 172 166 166 166 168 170 169 169 169 169 170 182 175 180 183 187 190 195 186 186 176 184 195 180 163 160 158 146 134 138 155 155 157 155 149 147 135 149 131
246 248 246 252 259 261 258 199 228 185 181 177 173 169 169 164 169 173 172 172 175 178 184 185 189 187 188 198 200 204 195 199 193 189 163 165 159 157 150 140 145 151 152 146 144 144 136 135 139
245 245 244 247 263 258 264 243 252 208 252 241 181 180 178 172 169 172 175 176 175 175 184 185 188 189 184 185 205 221 213 220 213 214 200 181 170 161 161 150 153 156 156 148 144 139 131 125 131
245 245 245 246 253 252 257 256 251 235 210 186 185 182 190 183 179 178 177 178 177 177 179 190 189 189 186 179 190 196 197 192 198 194 198 195 175 169 166 162 154 155 156 152 147 135 136 126 129
247 246 244 245 252 255 247 256 256 238 219 190 191 189 191 189 184 181 181 180 180 176 176 182 184 190 187 184 190 191 192 196 208 199 190 193 178 174 170 168 159 154 156 156 146 129 129 124 131
246 249 246 248 250 247 240 250 253 219 188 189 191 194 194 189 185 188 184 182 179 179 180 178 181 187 191 184 185 187 189 189 186 191 189 186 182 177 178 172 167 160 154 152 148 137 129 124 123
237 236 241 240 241 243 245 247 245 206 195 192 186 191 192 194 193 187 183 186 183 180 181 181 184 187 186 187 187 187 189 185 186 187 187 184 182 175 179 174 172 167 162 160 151 143 129 126 127
237 232 237 236 240 244 247 246 246 232 214 206 196 187 188 194 203 196 186 185 183 182 182 182 184 192 188 188 188 188 187 186 189 187 189 189 187 187 179 179 177 176 165 160 150 144 140 141 138
233 232 237 246 249 247 248 252 250 250 241 221 194 211 210 197 199 201 191 184 181 180 182 183 184 187 190 190 190 189 187 185 188 191 190 192 190 185 183 178 179 178 174 164 160 160 163 156 152
235 237 231 238 239 240 245 246 238 239 241 210 200 190 225 209 201 197 192 188 181 181 180 181 183 184 186 188 189 191 190 188 190 190 187 190 193 190 183 180 177 173 175 169 165 166 167 167 167
232 233 236 239 243 242 244 243 240 243 240 217 211 204 198 203 199 198 192 189 187 180 180 182 183 183 184 186 190 192 190 189 191 190 191 191 188 188 184 183 181 177 177 176 172 171 172 176 179
243 235 235 235 236 242 245 238 242 243 250 243 241 218 212 200 194 191 194 189 184 182 181 183 183 184 185 186 188 191 189 189 192 193 191 191 192 193 194 193 189 185 182 181 184 183 179 184 187